Location: ????????
(55.8351°N, 38.7040°E)
Time: 15:55:05
(UTC+00:00)

Cosmos 1470 Rocket - Pass Details

Date: 14 April 2024
Orbit: 601 x 629 km, 82.5° (Epoch: 24 May)

Event Time Altitude Azimuth Distance (km) Brightness Sun altitude
Rises 01:15:11 0° 348° (NNW) 2,889 7.3 -9.3°
Reaches altitude 10° 01:17:25 10° 349° (N) 1,984 6.4 -9.0°
Maximum altitude 01:21:49 84° 79° (ENE) 628 3.7 -8.5°
Drops below altitude 10° 01:26:14 10° 167° (SSE) 1,986 6.0 -7.9°
Sets 01:28:27 0° 168° (SSE) 2,892 6.8 -7.7°
